This is the latest recevied weather packets stored in our database for station/object K1BWE-1. If no packets are shown the sender has not sent any weather packets the latest 10 day(s).
| Time | Temp. | Humidity | Pressure | Rain* | Wind** | Luminosity | Snow |
|---|---|---|---|---|---|---|---|
| 1777929867 | 24.44° C | 24% | 1015.1 hPa | 0 mm | - | 270 W/m² | - |
| 1777929565 | 25° C | 25% | 1015 hPa | 0 mm | - | 171 W/m² | - |
| 1777929261 | 25° C | 25% | 1015.3 hPa | 0 mm | - | 194 W/m² | - |
| 1777928959 | 25° C | 25% | 1015.3 hPa | 0 mm | - | 206 W/m² | - |
| 1777928656 | 25° C | 25% | 1015.2 hPa | 0 mm | - | 183 W/m² | - |
| 1777928353 | 25° C | 24% | 1015.3 hPa | 0 mm | - | 229 W/m² | - |
| 1777928050 | 25° C | 25% | 1014.9 hPa | 0 mm | - | 260 W/m² | - |
| 1777927748 | 25.56° C | 24% | 1015.2 hPa | 0 mm | - | 207 W/m² | - |
| 1777927446 | 25° C | 23% | 1015.2 hPa | 0 mm | - | 250 W/m² | - |
| 1777927146 | 25.56° C | 22% | 1014.9 hPa | 0 mm | - | 283 W/m² | - |
| 1777926842 | 25.56° C | 22% | 1014.9 hPa | 0 mm | - | 294 W/m² | - |
| 1777926538 | 25.56° C | 22% | 1015.1 hPa | 0 mm | - | 317 W/m² | - |
| 1777926235 | 25.56° C | 20% | 1015.1 hPa | 0 mm | - | 323 W/m² | - |
| 1777925931 | 25.56° C | 21% | 1015.3 hPa | 0 mm | - | 304 W/m² | - |
| 1777925629 | 25.56° C | 22% | 1015 hPa | 0 mm | - | 393 W/m² | - |
| 1777925326 | 25.56° C | 22% | 1015.2 hPa | 0 mm | - | 367 W/m² | - |
| 1777925023 | 25.56° C | 25% | 1015.3 hPa | 0 mm | - | 327 W/m² | - |
| 1777924719 | 25° C | 22% | 1015.5 hPa | 0 mm | - | 297 W/m² | - |
| 1777924415 | 25° C | 21% | 1015.3 hPa | 0 mm | - | 221 W/m² | - |
| 1777924112 | 25° C | 21% | 1015.3 hPa | 0 mm | - | 238 W/m² | - |
| 1777923808 | 25° C | 21% | 1015.2 hPa | 0 mm | - | 263 W/m² | - |
| 1777923504 | 25° C | 22% | 1015 hPa | 0 mm | - | 291 W/m² | - |
| 1777923202 | 26.11° C | 21% | 1014.8 hPa | 0 mm | - | 375 W/m² | - |
| 1777922900 | 25.56° C | 25% | 1014.8 hPa | 0 mm | - | 390 W/m² | - |
| 1777922598 | 25.56° C | 24% | 1015 hPa | 0 mm | - | 389 W/m² | - |
* Rain latest hour (hover to see other rain measurements)
** Current wind speed in m/s (hover to see current wind gust speed)